Regional Weather Roundup
Issued by NWS

Home | Current Version | Previous Version | Text Only | Print | Product List | Glossary Off
Versions: 1 2 3 4 5 6 7 8 9 10 11 12 13 14 15 16 17 18 19 20 21 22 23 24 25 26 27 28 29 30 31 32 33 34 35 36 37 38 39 40 41 42 43 44 45 46 47 48 49 50

000
ASUS43 KLMK 052102
RWRKY
KENTUCKY REGIONAL WEATHER ROUNDUP
NATIONAL WEATHER SERVICE LOUISVILLE KY
500 PM EDT TUE MAY 05 2015

NOTE "FAIR" INDICATES FEW OR NO CLOUDS BELOW 12,000 FEET
WITH NO SIGNIFICANT WEATHER AND/OR OBSTRUCTIONS TO VISIBILITY.

KYZ001>023-026-027-061>063-070>075-052200-
WESTERN AND SOUTH CENTRAL KENTUCKY

CITY           SKY/WX    TMP DP  RH WIND       PRES   REMARKS
PADUCAH        SUNNY     85  53  33 S9        30.14F
HENDERSON      PTSUNNY   75  52  43 SW7       30.15F
OWENSBORO      MOSUNNY   85  55  35 S10       30.18F
HOPKINSVILLE   NOT AVBL
BOWLING GREEN  MOSUNNY   84  51  31 SE8       30.20F
GLASGOW        NOT AVBL
$$

KYZ024-025-028>034-038-045-046-053-052200-
NORTH CENTRAL KENTUCKY

CITY           SKY/WX    TMP DP  RH WIND       PRES   REMARKS
LOUISVILLE/SDF MOSUNNY   84  51  31 S9        30.19F
LOUISVILLE/LOU PTSUNNY   83  51  33 SW7       30.19F
FORT KNOX      NOT AVBL
$$

KYZ035>037-039>044-047>052-055>060-089>105-052200-
NORTHEAST KENTUCKY

CITY           SKY/WX    TMP DP  RH WIND       PRES   REMARKS
LEXINGTON      SUNNY     81  53  37 CALM      30.23F
COVINGTON      MOSUNNY   81  53  37 W6        30.20F
FRANKFORT      PTSUNNY   81  53  37 VRB5      30.20F
$$

KYZ054-064>069-076>088-106>120-052200-
SOUTHEAST KENTUCKY

CITY           SKY/WX    TMP DP  RH WIND       PRES   REMARKS
JACKSON        MOSUNNY   83  51  33 VRB3      30.24F
LONDON         MOSUNNY   81  47  30 S5        30.23F
SOMERSET       NOT AVBL
MIDDLESBORO    NOT AVBL
MONTICELLO     CLEAR     85  53  33 VRB5      30.25F
$$



USA.gov is the U.S. government's official web portal to all federal, state and local government web resources and services.